Miscellaneous Local Product
Issued by NWS Hastings, NE

Home | Current Version | Previous Version | Graphics & Text | Print | Product List | Glossary On
Versions: 1 2 3 4 5 6 7 8 9 10 11 12 13 14 15 16 17 18 19 20 21 22 23 24 25 26 27 28 29 30 31 32 33 34 35 36 37 38 39 40 41 42 43 44 45 46 47 48 49 50
038
AXUS43 KGID 081102
MISGRI

GID CWA HOURLY WEATHER ROUNDUP
NATIONAL WEATHER SERVICE HASTINGS NE
500 AM CST THU DEC 08 2016

NOTE: "FAIR" INDICATES FEW OR NO CLOUDS BELOW 12,000 FEET WITH NO
SIGNIFICANT WEATHER AND/OR OBSTRUCTIONS TO VISIBILITY.

...SOUTH CENTRAL NEBRASKA...

CITY           SKY/WX    TMP DP  RH WIND       PRES   REMARKS
GRAND ISLAND   CLEAR      9   0  67 NW16      30.55S WCI  -8
HASTINGS       CLEAR     10   0  63 NW14      30.56R WCI  -6
KEARNEY        CLEAR      9  -2  61 NW14G22   30.55R WCI  -8
ORD            CLEAR      7  -3  64 NW16      30.54R WCI -11
YORK           CLEAR     10   1  67 NW18      30.53F WCI  -8
AURORA         CLEAR     10   1  67 NW18G24   30.53F WCI  -9
LEXINGTON      CLEAR      6  -1  73 W13       30.57R WCI -10
HOLDREGE       CLEAR      8  -1  69 NW13      30.55S WCI  -8
HEBRON         CLEAR     12   3  68 NW13G20   30.58R WCI  -3

...NEBRASKA PANHANDLE...

CITY           SKY/WX    TMP DP  RH WIND       PRES   REMARKS
CHADRON        CLEAR     -2  -9  72 SW6       30.55R WCI -14
ALLIANCE       CLEAR    -10 -15  78 W8        30.47S WCI -26
SCOTTSBLUFF    CLOUDY    -8 -13  78 NW8       30.51S WCI -24
SIDNEY         CLOUDY    -6 -12  75 W12       30.47S WCI -25

...WESTERN AND NORTH CENTRAL NEBRASKA...

CITY           SKY/WX    TMP DP  RH WIND       PRES   REMARKS
VALENTINE      MOCLDY     5  -5  63 NW14      30.54S WCI -12
AINSWORTH      MOCLDY     5  -2  74 NW13G18   30.52R WCI -12
ONEILL         CLEAR      7   0  72 NW16G25   30.52R WCI -11
BROKEN BOW     CLEAR      6  -2  69 NW24G30   30.53R WCI -16
IMPERIAL       CLEAR      0  -8  69 NW10      30.54R WCI -16
NORTH PLATTE   CLEAR      1  -5  75 NW8       30.56S WCI -13
MCCOOK         CLEAR     -1  -7  75 W9        30.59R WCI -16

...EASTERN NEBRASKA...

CITY           SKY/WX    TMP DP  RH WIND       PRES   REMARKS
NORFOLK        CLEAR      7  -1  70 NW18G25   30.50R WCI -12
SO SIOUX CITY  CLEAR     12   2  64 NW16G28   30.48R WCI  -5
TEKAMAH        PTCLDY    11   3  70 NW17      30.52R WCI  -6
COLUMBUS       CLEAR      9   0  66 W13       30.53R WCI  -7
ALBION         CLEAR      8   0  68 NW14      30.52R WCI  -8
OMAHA EPPLEY   PTCLDY    12   4  70 NW20      30.52R WCI  -6
OFFUTT AFB     CLEAR     12   4  70 NW20      30.51R WCI  -6
MILLARD        CLEAR     13   4  65 NW16G24   30.52S WCI  -3
LINCOLN        CLEAR     12   2  64 NW15      30.56R WCI  -4
NEBRASKA CITY  CLEAR     13   2  60 NW16G22   30.51S WCI  -3
BEATRICE       CLEAR     13   4  67 NW15      30.55R WCI  -3
FALLS CITY     CLEAR     14   5  67 NW14      30.54R WCI  -1

...NORTHERN KANSAS...

CITY           SKY/WX    TMP DP  RH WIND       PRES   REMARKS
GOODLAND       CLOUDY    -4 -10  75 W12       30.52S WCI -22
HILL CITY      CLEAR      3  -3  76 W9        30.62R WCI -12
NORTON         SUNNY      0  -8  71 W10       30.57F WCI -17
PHILLIPSBURG   CLEAR      7   0  72 NW13      30.61F WCI  -9
SMITH CENTER   CLEAR      0   3 100 NW8       30.61R WCI -15
BELOIT         CLEAR      9   1  72 W9        30.61F WCI  -5
RUSSELL        CLEAR      9   3  77 NW13      30.60S WCI  -7
CONCORDIA      CLEAR     10   4  76 NW12      30.59R WCI  -5
SALINA         CLEAR     14   6  70 NW14      30.62S WCI  -1
TOPEKA         CLEAR     16   7  67 W9        30.58R WCI   4



USA.gov is the U.S. government's official web portal to all federal, state and local government web resources and services.